Rolla, ND

2:43 AM CDT on July 24, 2016 (GMT -0500)
Rolla

Weather History for K06D - March, 2013

Change the Weather History Date:

Saturday, March 23, 2013

  Actual Average (KRUG) Record (KRUG)
Temperature  
Mean Temperature 10 °F -  
Max Temperature 19 °F 37 °F 74 °F (1963)
Min Temperature 1 °F 18 °F -24 °F (1974)
Degree Days  
Heating Degree Days 55    
Moisture  
Dew Point 11 °F    
Average Humidity 89    
Maximum Humidity 100    
Minimum Humidity 78    
Precipitation  
Precipitation 0.74 in - - ()
Sea Level Pressure  
Sea Level Pressure 30.15 in    
Wind  
Wind Speed 8 mph (NNW)    
Max Wind Speed 16 mph    
Max Gust Speed -    
Visibility 9 miles    
Events Rain , Snow    
Averages and records for this station are not official NWS values.
T = Trace of Precipitation, MM = Missing Value Source: NWS Daily Summary

Daily Weather History Graph

Daily Weather History Graph

Search for Another Location

Airport or City:

Trip Planner

Search our weather history database for the weather conditions in past years. The results will help you decide how hot, cold, wet, or windy it might be!

Date:

Astronomy

Mar. 23, 2013 Rise Set
Actual Time 7:34 AM CDT 7:56 PM CDT
Civil Twilight 7:02 AM CDT 8:28 PM CDT
Nautical Twilight 6:25 AM CDT 9:05 PM CDT
Astronomical Twilight 5:46 AM CDT 9:44 PM CDT
Moon 4:09 PM CDT (3/23) 5:28 AM CDT (3/23)
Length of Visible Light 13h 25m
Length of Day
12h 22m
Waxing Gibbous, 85% of the Moon is Illuminated
Mar 23
Waxing Gibbous
Mar 27
Full
Apr 2
Last Quarter
Apr 10
New
Apr 18
First Quarter

Hourly Weather History & Observations

Time (CDT) Temp. Windchill Dew Point Humidity Pressure Visibility Wind Dir Wind Speed Gust Speed Precip Events Conditions
12:15 AM 6.8 °F -2.0 °F 3.2 °F 85% 30.12 in 10.0 mi North 4.6 mph - N/A   Partly Cloudy
12:35 AM 6.8 °F -2.0 °F 3.2 °F 85% 30.12 in 10.0 mi NNW 4.6 mph - N/A   Partly Cloudy
12:55 AM 6.8 °F -2.0 °F 1.4 °F 79% 30.12 in 10.0 mi North 4.6 mph - N/A   Scattered Clouds
1:15 AM 6.8 °F -2.0 °F 1.4 °F 79% 30.12 in 10.0 mi NW 4.6 mph - N/A   Scattered Clouds
1:35 AM 8.6 °F 2.0 °F 3.2 °F 79% 30.12 in 10.0 mi NNW 3.5 mph - N/A   Partly Cloudy
1:55 AM 6.8 °F -0.1 °F 1.4 °F 79% 30.12 in 10.0 mi NNW 3.5 mph - N/A   Clear
2:15 AM 6.8 °F -2.0 °F 1.4 °F 79% 30.12 in 10.0 mi NNW 4.6 mph - N/A   Clear
2:35 AM 5.0 °F -4.1 °F -0.4 °F 78% 30.12 in 10.0 mi North 4.6 mph - N/A   Partly Cloudy
3:15 AM 5.0 °F -6.9 °F -0.4 °F 78% 30.12 in 10.0 mi NNW 6.9 mph - N/A   Scattered Clouds
3:35 AM 5.0 °F -6.9 °F -0.4 °F 78% 30.12 in 10.0 mi NNW 6.9 mph - N/A   Scattered Clouds
3:55 AM 5.0 °F -8.1 °F 1.4 °F 85% 30.12 in 10.0 mi NW 8.1 mph - N/A   Mostly Cloudy
4:15 AM 5.0 °F -6.9 °F -0.4 °F 78% 30.12 in 10.0 mi NW 6.9 mph - N/A   Scattered Clouds
4:35 AM 3.2 °F -6.2 °F -0.4 °F 85% 30.12 in 10.0 mi NNW 4.6 mph - N/A   Mostly Cloudy
4:55 AM 1.4 °F -8.3 °F -0.4 °F 92% 30.12 in 10.0 mi NNW 4.6 mph - N/A   Scattered Clouds
5:15 AM 1.4 °F -9.9 °F -0.4 °F 92% 30.12 in 10.0 mi NNW 5.8 mph - N/A   Mostly Cloudy
5:35 AM 1.4 °F -11.3 °F -0.4 °F 92% 30.12 in 10.0 mi NNW 6.9 mph - N/A   Mostly Cloudy
5:55 AM 3.2 °F -9.1 °F -0.4 °F 85% 30.12 in 10.0 mi NNW 6.9 mph - N/A   Mostly Cloudy
6:15 AM 3.2 °F -7.8 °F -0.4 °F 85% 30.13 in 10.0 mi NW 5.8 mph - N/A   Scattered Clouds
6:35 AM 5.0 °F -6.9 °F 1.4 °F 85% 30.13 in 10.0 mi NW 6.9 mph - N/A   Mostly Cloudy
6:55 AM 5.0 °F -6.9 °F 1.4 °F 85% 30.14 in 10.0 mi NW 6.9 mph - N/A   Overcast
7:15 AM 6.8 °F -4.8 °F 5.0 °F 92% 30.14 in 10.0 mi NW 6.9 mph - N/A   Overcast
7:35 AM 8.6 °F -2.6 °F 5.0 °F 85% 30.14 in 10.0 mi NNW 6.9 mph - N/A   Overcast
7:55 AM 10.4 °F -0.4 °F 6.8 °F 85% 30.14 in 10.0 mi NNW 6.9 mph - N/A   Overcast
8:15 AM 10.4 °F -2.4 °F 8.6 °F 92% 30.14 in 10.0 mi NNW 9.2 mph - N/A   Overcast
8:35 AM 12.2 °F -0.2 °F 8.6 °F 85% 30.14 in 10.0 mi NNW 9.2 mph - N/A   Overcast
8:55 AM 14.0 °F 1.2 °F 8.6 °F 79% 30.14 in 10.0 mi NNW 10.4 mph - N/A   Overcast
9:15 AM 14.0 °F 0.5 °F 10.4 °F 86% 30.14 in 10.0 mi NNW 11.5 mph - N/A   Overcast
9:35 AM 14.0 °F -0.2 °F 10.4 °F 86% 30.14 in 10.0 mi North 12.7 mph - N/A   Overcast
9:55 AM 14.0 °F 0.5 °F 8.6 °F 79% 30.15 in 10.0 mi North 11.5 mph - N/A   Overcast
10:15 AM 14.0 °F 2.0 °F 10.4 °F 86% 30.15 in 10.0 mi NNW 9.2 mph - N/A   Overcast
10:35 AM 14.0 °F 1.2 °F 10.4 °F 86% 30.15 in 10.0 mi NW 10.4 mph - N/A   Overcast
10:55 AM 14.0 °F -0.2 °F 10.4 °F 86% 30.15 in 10.0 mi NNW 12.7 mph - N/A   Overcast
11:15 AM 15.8 °F 2.7 °F 12.2 °F 86% 30.15 in 10.0 mi NW 11.5 mph - N/A   Overcast
11:35 AM 15.8 °F 2.7 °F 14.0 °F 93% 30.16 in 10.0 mi NNW 11.5 mph - N/A Snow Light Snow
11:55 AM 15.8 °F 3.4 °F 14.0 °F 93% 30.16 in 10.0 mi North 10.4 mph - N/A Snow Light Snow
12:15 PM 15.8 °F 1.4 °F 14.0 °F 93% 30.16 in 10.0 mi NNW 13.8 mph - N/A Snow Light Snow
12:35 PM 17.6 °F 3.7 °F 14.0 °F 86% 30.15 in 10.0 mi NNW 13.8 mph - N/A Snow Light Snow
12:55 PM 17.6 °F 3.2 °F 14.0 °F 86% 30.15 in 10.0 mi NNW 15.0 mph - N/A Snow Light Snow
1:15 PM 17.6 °F 2.7 °F 14.0 °F 86% 30.15 in 10.0 mi NNW 16.1 mph - N/A Rain Light Freezing Rain
1:35 PM 17.6 °F 2.7 °F 14.0 °F 86% 30.15 in 10.0 mi NNW 16.1 mph - N/A Rain Light Freezing Rain
1:55 PM 17.6 °F 3.7 °F 15.8 °F 93% 30.15 in 10.0 mi NNW 13.8 mph - N/A   Overcast
2:15 PM 17.6 °F 3.7 °F 15.8 °F 93% 30.15 in 10.0 mi NNW 13.8 mph - N/A   Overcast
2:35 PM 17.6 °F 3.7 °F 14.0 °F 86% 30.15 in 10.0 mi NNW 13.8 mph - N/A   Overcast
2:55 PM 19.4 °F 6.0 °F 15.8 °F 86% 30.15 in 10.0 mi NNW 13.8 mph - N/A   Overcast
3:15 PM 19.4 °F 6.0 °F 15.8 °F 86% 30.14 in 10.0 mi NNW 13.8 mph - N/A   Overcast
3:35 PM 19.4 °F 6.0 °F 15.8 °F 86% 30.14 in 10.0 mi NNW 13.8 mph - N/A   Overcast
3:55 PM 19.4 °F 6.0 °F 15.8 °F 86% 30.14 in 10.0 mi NNW 13.8 mph - N/A   Overcast
4:15 PM 19.4 °F 7.2 °F 15.8 °F 86% 30.15 in 10.0 mi NNW 11.5 mph - N/A   Mostly Cloudy
4:35 PM 19.4 °F 6.6 °F 17.6 °F 93% 30.15 in 10.0 mi NNW 12.7 mph - N/A   Clear
4:55 PM 19.4 °F 7.9 °F 17.6 °F 93% 30.15 in 10.0 mi NNW 10.4 mph - N/A   Mostly Cloudy
5:15 PM 19.4 °F 6.6 °F 17.6 °F 93% 30.15 in 10.0 mi NNW 12.7 mph - N/A   Overcast
5:35 PM 19.4 °F 7.9 °F 17.6 °F 93% 30.15 in 10.0 mi NNW 10.4 mph - N/A   Overcast
5:55 PM 19.4 °F 7.2 °F 17.6 °F 93% 30.15 in 10.0 mi NNW 11.5 mph - N/A   Overcast
6:15 PM 19.4 °F 6.0 °F 17.6 °F 93% 30.15 in 10.0 mi NNW 13.8 mph - N/A   Overcast
6:35 PM 19.4 °F 6.6 °F 17.6 °F 93% 30.16 in 10.0 mi NNW 12.7 mph - N/A   Overcast
6:55 PM 19.4 °F 6.6 °F 17.6 °F 93% 30.16 in 10.0 mi NNW 12.7 mph - N/A Snow Light Snow
7:15 PM 19.4 °F 7.2 °F 17.6 °F 93% 30.16 in 10.0 mi NNW 11.5 mph - N/A Snow Light Snow
7:35 PM 19.4 °F 6.6 °F 17.6 °F 93% 30.17 in 7.0 mi NNW 12.7 mph - 0.01 in Snow Light Snow
7:55 PM 19.4 °F 7.2 °F 17.6 °F 93% 30.17 in 2.5 mi NNW 11.5 mph - 0.10 in Snow Light Snow
8:15 PM 19.4 °F 6.6 °F 19.4 °F 100% 30.17 in 4.0 mi NNW 12.7 mph - 0.02 in Snow Light Snow
8:35 PM 17.6 °F 5.7 °F 17.6 °F 100% 30.18 in 8.0 mi North 10.4 mph - 0.05 in Snow Light Snow
8:55 PM 17.6 °F 5.7 °F 17.6 °F 100% 30.18 in 10.0 mi North 10.4 mph - 0.06 in Snow Light Snow
9:15 PM 17.6 °F 6.4 °F 17.6 °F 100% 30.18 in 5.0 mi North 9.2 mph - 0.01 in Snow Light Snow
9:35 PM 17.6 °F 6.4 °F 17.6 °F 100% 30.19 in 5.0 mi North 9.2 mph - 0.04 in Snow Light Snow
9:55 PM 17.6 °F 6.4 °F 17.6 °F 100% 30.19 in 3.0 mi North 9.2 mph - 0.10 in Snow Light Snow
10:15 PM 17.6 °F 7.3 °F 17.6 °F 100% 30.19 in 6.0 mi North 8.1 mph - 0.02 in Snow Light Snow
10:35 PM 17.6 °F 6.4 °F 17.6 °F 100% 30.19 in 3.0 mi North 9.2 mph - 0.08 in Snow Light Snow
10:55 PM 17.6 °F 7.3 °F 17.6 °F 100% 30.19 in 2.5 mi NNW 8.1 mph - 0.18 in Snow Light Snow
11:15 PM 17.6 °F 6.4 °F 17.6 °F 100% 30.19 in 2.5 mi NNW 9.2 mph - 0.11 in Snow Light Snow
11:35 PM 17.6 °F - 17.6 °F 100% 30.19 in 2.0 mi North - - 0.26 in Snow Light Snow
11:55 PM 17.6 °F 6.4 °F 17.6 °F 100% 30.19 in 10.0 mi North 9.2 mph - 0.30 in Snow Light Snow